WESTFORD NEEDLES, 2361

Orbit data source: Space-Track

WESTFORD NEEDLES, 2361 is space debris in LEO originally from a launch on Thu, 09 May 1963 UTC launched from the Air Force Western Test Range (AFWTR). Debris objects in space refer to the collection of defunct objects orbiting the Earth. Examples of debris include non-operational satellites, rocket bodies, and fragments generated from explosions, collisions, or faulty payload assembly.

Loading next visibility...
WESTFORD NEEDLES details
Identifier
2361, 1963-014L
Orbit
LEO
Last TLE update19 hours ago
Origin
Flag of USUSAF SSD (US)
ManufacturerUnknown
MissionSpacecraft
Bus & MotorUnknown
MassUnknown
Launch date (UTC)
1963-05-09 (62 years ago)
Launch vehicleUnknown
Launch site
Air Force Western Test Range (AFWTR)
Object type
Payload
Rocket body
Debris
Shape & HBRUnknown
Radar Cross SectionMedium (>0.1 m² and <1 m²)

Expand to show TLE details & history

TLE from 19 hours ago
0 WESTFORD NEEDLES
1  2361U 63014L   25035.89835476  .00000016  00000-0  57845-2 0  9999
2  2361  87.3487 227.5165 0221496 117.6382 244.7145  8.66309821952254
Epoch: 2025-02-04T21:33Z
Definitive object data (Epoch: 2025-02-04T21:33:37.851Z)
Latitude-0.00002°
Longitude128.81175°
Altitude3,737.046 km
Speed6.247 km/s
True Right ascension15h 10m 03s
True Declination0° 00' 00"
Sunlit
Object was in daylight at TLE epoch
Visualization TLE readout
Latitude6.4335°
Longitude129.03273°
Altitude3,710.407 km
Speed6.264 km/s
Apparent Right ascension13h 14m 03s
Apparent Declination-19° 01' 02"
Sunlit
Object is in daylight
Visualization observer readout
Local Sidereal Time19:04:29
Azimuth253.756° W
Elevation-10.303°
Doppler factor1
Orbital elements
Apogee altitude3,855.726 km
Perigee altitude3,412.198 km
Semi-major axis10,012.099 km
Eccentricity0.0221496
Inclination87.3487°
RAAN227.5165°
Arg. of periapsis117.6382°
True anomaly242.44695°
Mean anomaly244.7145°
Eccentric anomaly243.57799°
Mean motion2.16648 °/min
BSTAR0.0057845
Orbital period166.17 mins
Loading maneuver chart data...

WESTFORD NEEDLES Visibility forecast

Observer location: undefined°, undefined

Span
Click to sort rows by Start time (UTC) header in descending order
Start Az.
Max El. time (UTC)
Max El. Az.
Max El.
End time (UTC)
End Az.
34 mins2025-02-05 23:15:35.186Z3.555° NNE2025-02-05 23:32:35.186Z77.838° E37.059°2025-02-05 23:49:35.186Z150.44° SSE
31 mins2025-02-06 02:03:35.186Z350.066° N2025-02-06 02:18:35.186Z284.432° WNW36.851°2025-02-06 02:34:35.186Z217.488° SW
16 mins2025-02-06 09:51:35.186Z80.583° E2025-02-06 09:58:35.186Z55.861° ENE15.695°2025-02-06 10:07:35.186Z23.919° NE
35 mins2025-02-06 12:22:35.186Z163.794° S2025-02-06 12:40:35.186Z75.394° E43.792°2025-02-06 12:57:35.186Z4.47° NNE
30 mins2025-02-06 15:13:35.186Z235.124° WSW2025-02-06 15:28:35.186Z292.695° NW27.453°2025-02-06 15:43:35.186Z351.328° N
|